sat.trackr.live / text

‹ back to catalog

ONEWEB-0023

NORAD 45136 · 2020-008F

PAYLOAD ACTIVE UNKNOWN

§ Identity

Operator
Country
UK
Launch date
2020-02-06
Launch site
TYMSC
Launch vehicle
Mass (kg)
RCS (m²)

Purposes: comms

External: N2YO · Heavens-Above · Gunter

§ Orbital elements

Epoch: 2026-05-25T03:57:09.196992Z

Period
109.89 min
Inclination
87.8856°
Eccentricity
0.0001971
Mean motion
13.10372646 rev/d
Perigee alt
1,220.2 km
Apogee alt
1,223.2 km
Semi-major
7,599.9 km
B*
1.6477e-3
RAAN
40.8473°
Arg perigee
81.4281°
Mean anomaly
278.7069°
Rev number
30,506

§ Raw data

ONEWEB-00231 45136U 20008F   26145.16468978  .00000588  00000+0  16477-2 0  99932 45136  87.8856  40.8473 0001971  81.4281 278.7069 13.10372646305067

JSON: /api/v1/satellites/45136 · /tle

For live sub-satellite position, see the globe view (requires WebGL).

§ Visibility from observer

Set your observer location to see the next 7 days of passes ≥ 10°. The values pass through the URL so the page stays shareable.

No JS? Fill the form by hand. The geolocation button needs JavaScript.